QPF
0.00 0.00 0.00 0.00 0.00 0.00 0.00 0.00 0.00 0.00 0.00 0.00 0.00 0.00 0.00 0.01 0.02 0.02 0.00 0.00 0.00 0.00 0.00 0.03 0.08 0.01 0.04 0.02 0.00 0.00 0.00 0.00 0.00 0.00 0.00 0.00 0.00 0.00 0.00 0.00 0.00 0.00 0.00 0.00 0.00 0.01 0.02 0.02 0.02
0.00 0.00 0.00 0.00 0.00 0.00 0.00 0.00 0.00 0.00 0.00 0.00 0.00 0.00 0.00 0.00 0.00 0.00 0.00 0.00 0.00 0.00 0.00 0.00 0.09 0.01 0.01 0.00 0.00 0.00 0.00 0.00 0.00 0.00 0.00 0.00 0.00 0.00 0.00 0.00 0.00 0.00 0.00 0.00 0.00 0.01 0.01 0.05 0.08
0.00 0.00 0.00 0.00 0.00 0.00 0.00 0.00 0.00 0.00 0.00 0.00 0.00 0.00 0.00 0.00 0.00 0.00 0.00 0.00 0.00 0.00 0.00 0.00 0.00 0.00 0.00 0.00 0.00 0.00 0.00 0.00 0.01 0.02 0.00 0.00 0.00 0.00 0.00 0.00 0.00 0.00 0.00 0.00 0.00 0.00 0.00 0.01 0.02
0.00 0.00 0.00 0.00 0.00 0.00 0.00 0.00 0.00 0.00 0.00 0.00 0.00 0.00 0.00 0.00 0.00 0.00 0.00 0.00 0.00 0.00 0.01 0.01 0.00 0.00 0.00 0.01 0.00 0.00 0.00 0.00 0.00 0.00 0.00 0.00 0.00 0.00 0.00 0.00 0.00 0.00 0.00 0.00 0.00 0.00 0.00 0.00 0.00
0.03 0.02 0.00 0.00 0.00 0.00 0.00 0.00 0.00 0.00 0.00 0.00 0.00 0.00 0.00 0.00 0.00 0.00 0.00 0.00 0.00 0.00 0.03 0.04 0.01 0.00 0.00 0.01 0.00 0.00 0.00 0.00 0.02 0.00 0.00 0.00 0.00 0.00 0.00 0.00 0.00 0.00 0.00 0.00 0.00 0.00 0.00 0.00 0.00
0.01 0.01 0.01 0.01 0.01 0.00 0.00 0.00 0.00 0.00 0.00 0.00 0.00 0.00 0.00 0.01 0.00 0.01 0.01 0.00 0.01 0.04 0.00 0.05 0.01 0.00 0.03 0.01 0.00 0.00 0.00 0.00 0.00 0.00 0.00 0.00 0.00 0.00 0.00 0.00 0.00 0.00 0.00 0.00 0.00 0.00 0.00 0.00 0.01
0.00 0.00 0.00 0.01 0.00 0.00 0.00 0.00 0.00 0.00 0.00 0.00 0.00 0.00 0.00 0.01 0.02 0.01 0.00 0.00 0.00 0.04 0.00 0.16 0.21 0.01 0.00 0.00 0.00 0.00 0.00 0.00 0.00 0.00 0.00 0.00 0.00 0.00 0.00 0.00 0.00 0.00 0.00 0.00 0.00 0.00 0.00 0.00 0.00
0.00 0.00 0.00 0.00 0.00 0.00 0.00 0.00 0.00 0.00 0.00 0.00 0.00 0.00 0.00 0.00 0.02 0.01 0.00 0.00 0.00 0.00 0.01 0.01 0.11 0.10 0.05 0.06 0.01 0.00 0.00 0.00 0.01 0.00 0.00 0.00 0.00 0.00 0.00 0.00 0.00 0.00 0.00 0.00 0.00 0.00 0.00 0.00 0.00
0.00 0.00 0.01 0.03 0.01 0.00 0.00 0.00 0.00 0.00 0.00 0.00 0.00 0.00 0.00 0.00 0.01 0.01 0.00 0.00 0.00 0.00 0.00 0.00 0.00 0.01 0.01 0.03 0.04 0.03 0.08 0.06 0.04 0.00 0.01 0.01 0.00 0.00 0.00 0.00 0.00 0.00 0.00 0.00 0.00 0.00 0.00 0.00 0.00
0.00 0.00 0.02 0.02 0.02 0.00 0.00 0.00 0.00 0.00 0.00 0.00 0.00 0.00 0.00 0.00 0.00 0.00 0.00 0.00 0.00 0.00 0.00 0.00 0.00 0.00 0.00 0.03 0.18 0.19 0.05 0.04 0.00 0.03 0.02 0.00 0.00 0.00 0.00 0.00 0.00 0.00 0.00 0.00 0.00 0.00 0.00 0.00 0.00
0.00 0.00 0.00 0.02 0.02 0.00 0.00 0.00 0.00 0.00 0.00 0.00 0.00 0.00 0.00 0.00 0.00 0.00 0.00 0.00 0.00 0.00 0.00 0.00 0.00 0.00 0.00 0.00 0.03 0.08 0.00 0.00 0.00 0.00 0.00 0.00 0.00 0.00 0.00 0.00 0.00 0.00 0.00 0.00 0.00 0.00 0.00 0.00 0.00
0.00 0.00 0.00 0.00 0.01 0.00 0.00 0.00 0.00 0.00 0.00 0.00 0.00 0.00 0.00 0.00 0.00 0.00 0.00 0.00 0.00 0.00 0.00 0.00 0.00 0.00 0.00 0.00 0.01 0.01 0.00 0.00 0.00 0.01 0.00 0.00 0.00 0.00 0.00 0.00 0.00 0.00 0.00 0.00 0.00 0.00 0.00 0.00 0.00
0.00 0.00 0.00 0.00 0.00 0.00 0.01 0.00 0.00 0.01 0.01 0.00 0.00 0.00 0.00 0.00 0.00 0.00 0.00 0.00 0.00 0.00 0.00 0.00 0.00 0.00 0.00 0.00 0.00 0.00 0.00 0.00 0.01 0.01 0.00 0.00 0.00 0.00 0.00 0.00 0.00 0.00 0.00 0.00 0.00 0.00 0.00 0.00 0.00
0.00 0.00 0.00 0.00 0.02 0.02 0.04 0.02 0.00 0.01 0.01 0.00 0.00 0.00 0.00 0.00 0.00 0.00 0.00 0.00 0.00 0.00 0.00 0.00 0.00 0.00 0.00 0.00 0.00 0.00 0.00 0.00 0.00 0.00 0.00 0.00 0.00 0.00 0.00 0.00 0.00 0.00 0.00 0.00 0.00 0.00 0.00 0.00 0.00
0.00 0.00 0.00 0.01 0.02 0.02 0.01 0.01 0.00 0.00 0.00 0.00 0.00 0.00 0.00 0.00 0.00 0.00 0.00 0.00 0.00 0.00 0.00 0.00 0.00 0.00 0.00 0.00 0.00 0.00 0.00 0.00 0.00 0.00 0.00 0.00 0.00 0.00 0.00 0.00 0.00 0.00 0.00 0.00 0.00 0.00 0.00 0.00 0.00
0.00 0.00 0.00 0.00 0.00 0.03 0.03 0.00 0.01 0.00 0.00 0.00 0.00 0.00 0.00 0.00 0.00 0.00 0.00 0.00 0.00 0.00 0.00 0.00 0.00 0.00 0.00 0.00 0.00 0.00 0.00 0.00 0.00 0.00 0.00 0.00 0.00 0.00 0.00 0.00 0.00 0.00 0.00 0.00 0.00 0.00 0.00 0.00 0.00
0.00 0.00 0.00 0.00 0.00 0.00 0.00 0.00 0.01 0.00 0.00 0.00 0.00 0.00 0.00 0.00 0.00 0.00 0.00 0.00 0.00 0.00 0.00 0.00 0.00 0.00 0.00 0.00 0.00 0.00 0.00 0.00 0.00 0.00 0.00 0.00 0.00 0.00 0.00 0.00 0.00 0.00 0.00 0.00 0.00 0.00 0.00 0.00 0.00
0.00 0.00 0.00 0.00 0.00 0.00 0.00 0.00 0.00 0.00 0.00 0.00 0.00 0.00 0.00 0.00 0.00 0.00 0.00 0.00 0.00 0.00 0.00 0.00 0.00 0.00 0.00 0.00 0.00 0.00 0.00 0.00 0.00 0.00 0.00 0.00 0.00 0.00 0.01 0.00 0.00 0.00 0.00 0.00 0.00 0.00 0.00 0.00 0.00
0.00 0.00 0.00 0.00 0.00 0.00 0.00 0.00 0.00 0.00 0.00 0.00 0.00 0.00 0.00 0.00 0.00 0.00 0.00 0.00 0.00 0.00 0.00 0.00 0.00 0.00 0.00 0.00 0.00 0.00 0.00 0.00 0.00 0.00 0.00 0.00 0.00 0.00 0.00 0.00 0.00 0.00 0.00 0.00 0.00 0.00 0.00 0.00 0.00
0.00 0.00 0.00 0.00 0.00 0.00 0.00 0.00 0.00 0.00 0.00 0.00 0.00 0.00 0.00 0.00 0.00 0.00 0.00 0.00 0.00 0.00 0.00 0.00 0.00 0.00 0.00 0.00 0.00 0.00 0.00 0.00 0.00 0.00 0.00 0.00 0.00 0.00 0.00 0.00 0.00 0.00 0.00 0.00 0.00 0.00 0.00 0.00 0.00
0.00 0.00 0.00 0.00 0.00 0.00 0.00 0.00 0.00 0.00 0.00 0.00 0.00 0.00 0.00 0.00 0.00 0.00 0.00 0.00 0.00 0.00 0.00 0.00 0.00 0.00 0.00 0.00 0.00 0.00 0.00 0.00 0.00 0.00 0.00 0.00 0.00 0.00 0.00 0.00 0.00 0.00 0.00 0.00 0.00 0.00 0.00 0.00 0.00
0.00 0.00 0.00 0.00 0.00 0.00 0.00 0.00 0.00 0.00 0.00 0.00 0.00 0.00 0.00 0.00 0.00 0.00 0.00 0.00 0.00 0.00 0.00 0.00 0.00 0.00 0.00 0.00 0.00 0.00 0.00 0.00 0.00 0.00 0.00 0.00 0.00 0.00 0.00 0.00 0.00 0.00 0.00 0.00 0.00 0.00 0.00 0.00 0.00
0.00 0.00 0.00 0.00 0.00 0.00 0.00 0.00 0.00 0.00 0.00 0.00 0.00 0.00 0.00 0.00 0.00 0.00 0.00 0.00 0.00 0.00 0.00 0.00 0.00 0.00 0.00 0.00 0.00 0.00 0.00 0.00 0.00 0.00 0.00 0.00 0.00 0.00 0.00 0.00 0.00 0.00 0.00 0.00 0.00 0.00 0.00 0.00 0.00
0.00 0.00 0.00 0.00 0.00 0.00 0.00 0.00 0.00 0.00 0.00 0.00 0.00 0.00 0.00 0.00 0.00 0.00 0.00 0.00 0.00 0.00 0.00 0.00 0.00 0.00 0.00 0.00 0.00 0.00 0.00 0.00 0.00 0.00 0.00 0.00 0.00 0.00 0.00 0.00 0.00 0.00 0.00 0.00 0.00 0.00 0.00 0.00 0.00
0.00 0.00 0.00 0.00 0.00 0.00 0.00 0.00 0.00 0.00 0.00 0.00 0.00 0.00 0.00 0.00 0.00 0.00 0.00 0.00 0.00 0.00 0.00 0.00 0.00 0.00 0.00 0.00 0.00 0.00 0.00 0.00 0.00 0.00 0.00 0.00 0.00 0.00 0.00 0.00 0.00 0.00 0.00 0.00 0.00 0.00 0.00 0.00 0.00
0.00 0.00 0.00 0.00 0.00 0.00 0.00 0.00 0.00 0.00 0.00 0.00 0.00 0.00 0.00 0.00 0.00 0.00 0.00 0.00 0.00 0.00 0.00 0.00 0.00 0.00 0.00 0.00 0.00 0.00 0.00 0.00 0.00 0.00 0.00 0.00 0.00 0.00 0.00 0.00 0.00 0.00 0.00 0.00 0.00 0.00 0.00 0.00 0.00
0.00 0.00 0.00 0.00 0.00 0.00 0.00 0.00 0.00 0.00 0.00 0.00 0.00 0.00 0.00 0.00 0.00 0.00 0.01 0.01 0.00 0.00 0.00 0.00 0.00 0.00 0.00 0.00 0.00 0.00 0.00 0.00 0.00 0.00 0.00 0.00 0.00 0.00 0.00 0.00 0.00 0.00 0.00 0.00 0.00 0.00 0.00 0.00 0.00
0.00 0.00 0.00 0.00 0.00 0.00 0.00 0.00 0.00 0.00 0.00 0.00 0.00 0.00 0.00 0.00 0.00 0.00 0.00 0.01 0.00 0.00 0.00 0.00 0.00 0.00 0.00 0.00 0.00 0.00 0.00 0.00 0.00 0.00 0.00 0.00 0.00 0.00 0.00 0.00 0.01 0.00 0.03 0.05 0.02 0.00 0.00 0.00 0.00
0.00 0.00 0.00 0.00 0.00 0.00 0.00 0.00 0.00 0.00 0.00 0.00 0.00 0.00 0.00 0.00 0.00 0.00 0.00 0.00 0.00 0.00 0.00 0.00 0.00 0.00 0.00 0.00 0.00 0.00 0.00 0.00 0.00 0.00 0.00 0.00 0.00 0.00 0.00 0.00 0.03 0.00 0.00 0.00 0.00 0.00 0.02 0.01 0.00
0.00 0.00 0.00 0.00 0.00 0.00 0.00 0.00 0.00 0.00 0.00 0.00 0.00 0.00 0.00 0.00 0.00 0.00 0.00 0.00 0.00 0.00 0.00 0.00 0.00 0.00 0.00 0.00 0.00 0.00 0.00 0.00 0.00 0.00 0.00 0.00 0.00 0.00 0.01 0.03 0.06 0.03 0.01 0.00 0.02 0.03 0.02 0.01 0.00
MSLP
1010.17 1010.21 1010.22 1010.49 1011.26 1010.93 1010.33 1009.58 1008.82 1008.59 1008.87 1009.06 1009.04 1009.63 1010.88 1011.30 1011.68 1013.03 1012.49 1012.72 1012.93 1013.41 1013.47 1013.72 1013.92 1014.04 1014.20 1014.38 1014.53 1014.73 1014.94 1015.18 1015.23 1015.21 1015.26 1015.30 1015.38 1015.50 1015.65 1015.78 1015.88 1016.13 1016.25 1016.38 1016.44 1016.65 1016.77 1016.83 1016.88
1010.29 1010.26 1010.43 1010.70 1011.22 1011.42 1010.65 1010.02 1009.27 1008.83 1008.95 1009.15 1009.32 1010.19 1010.98 1011.81 1012.08 1012.75 1012.97 1013.14 1013.03 1013.40 1013.67 1013.85 1014.07 1014.26 1014.44 1014.55 1014.68 1014.81 1015.06 1015.29 1015.39 1015.45 1015.47 1015.55 1015.61 1015.69 1015.88 1015.88 1016.03 1016.26 1016.50 1016.61 1016.67 1016.97 1017.10 1017.33 1017.22
1010.22 1010.20 1010.99 1011.55 1012.11 1011.85 1011.00 1010.14 1009.67 1009.57 1009.23 1009.07 1009.78 1010.19 1011.07 1012.15 1012.58 1012.88 1012.92 1013.27 1013.41 1013.71 1013.84 1013.93 1014.20 1014.38 1014.59 1014.73 1014.88 1015.04 1015.16 1015.41 1015.55 1015.60 1015.71 1015.83 1015.84 1015.98 1016.03 1016.06 1016.21 1016.51 1016.67 1016.75 1016.94 1017.14 1017.42 1017.55 1017.60
1010.05 1010.76 1011.71 1012.13 1012.33 1011.72 1010.86 1010.23 1009.88 1009.96 1009.43 1009.60 1010.07 1010.84 1011.51 1011.76 1012.28 1012.66 1013.19 1013.52 1013.82 1014.05 1014.01 1014.06 1014.29 1014.50 1014.73 1014.91 1015.07 1015.20 1015.37 1015.59 1015.65 1015.80 1015.95 1016.03 1016.10 1016.20 1016.16 1016.29 1016.43 1016.68 1016.86 1016.99 1017.19 1017.34 1017.56 1017.68 1017.80
1010.37 1011.30 1012.11 1012.53 1012.52 1011.65 1010.60 1009.87 1009.94 1009.95 1009.86 1010.19 1010.44 1011.52 1012.17 1012.35 1012.31 1012.85 1013.35 1013.78 1014.01 1014.29 1014.20 1014.21 1014.42 1014.56 1014.83 1015.06 1015.22 1015.37 1015.56 1015.69 1015.72 1015.92 1016.14 1016.26 1016.34 1016.38 1016.27 1016.41 1016.60 1016.76 1016.89 1017.13 1017.34 1017.48 1017.70 1017.91 1018.08
1011.09 1011.97 1012.91 1012.93 1012.09 1011.11 1010.19 1009.49 1009.54 1009.93 1010.11 1010.61 1011.00 1011.82 1012.95 1012.87 1012.71 1013.29 1013.59 1013.96 1014.19 1014.32 1014.38 1014.48 1014.58 1014.73 1014.98 1015.10 1015.32 1015.56 1015.76 1015.88 1015.94 1016.08 1016.21 1016.41 1016.48 1016.47 1016.46 1016.63 1016.77 1016.89 1017.02 1017.22 1017.39 1017.61 1017.76 1017.90 1017.97
1011.22 1012.23 1012.91 1012.83 1012.00 1011.10 1009.92 1009.28 1009.52 1010.10 1010.20 1010.65 1011.00 1012.28 1013.29 1013.40 1013.36 1013.45 1014.00 1014.22 1014.47 1014.52 1014.61 1014.73 1014.84 1015.00 1015.14 1015.32 1015.46 1015.58 1015.81 1015.88 1016.01 1016.15 1016.34 1016.52 1016.60 1016.57 1016.62 1016.74 1016.90 1017.03 1017.13 1017.25 1017.36 1017.55 1017.70 1017.73 1017.95
1011.12 1011.72 1012.37 1012.18 1011.51 1010.53 1009.54 1009.08 1008.73 1009.80 1010.26 1010.63 1011.04 1012.12 1013.10 1013.18 1013.54 1013.91 1014.35 1014.65 1014.80 1014.96 1014.87 1015.19 1015.29 1015.39 1015.64 1015.46 1015.54 1015.68 1015.83 1015.91 1016.02 1016.21 1016.48 1016.57 1016.67 1016.67 1016.71 1016.84 1017.08 1017.18 1017.25 1017.35 1017.37 1017.47 1017.54 1017.51 1017.65
1011.01 1011.50 1011.69 1011.34 1010.69 1010.27 1009.28 1008.66 1009.08 1009.70 1010.20 1010.63 1011.03 1011.61 1012.06 1013.01 1013.68 1014.22 1014.79 1015.07 1015.24 1015.32 1015.40 1015.44 1015.57 1015.70 1015.84 1015.79 1015.80 1015.83 1016.00 1016.04 1016.16 1016.32 1016.50 1016.62 1016.87 1016.89 1016.90 1017.09 1017.24 1017.35 1017.36 1017.47 1017.46 1017.52 1017.61 1017.39 1017.47
1010.85 1011.38 1010.72 1010.23 1009.95 1009.36 1009.33 1009.06 1009.14 1009.89 1010.58 1011.04 1011.42 1012.05 1012.50 1013.17 1013.90 1014.40 1014.89 1015.18 1015.38 1015.49 1015.57 1015.64 1015.71 1015.87 1015.99 1016.02 1016.19 1016.19 1016.30 1016.64 1016.70 1016.83 1016.84 1017.08 1017.21 1017.29 1017.24 1017.25 1017.29 1017.38 1017.46 1017.52 1017.45 1017.47 1017.47 1017.53 1017.65
1010.38 1010.10 1009.41 1009.57 1009.50 1009.04 1008.87 1009.15 1009.11 1009.94 1010.90 1010.71 1011.30 1012.14 1012.75 1013.28 1013.99 1014.44 1014.88 1015.03 1015.25 1015.55 1015.72 1015.79 1015.94 1016.09 1016.23 1016.27 1016.34 1016.33 1016.70 1016.93 1017.10 1017.10 1017.10 1017.23 1017.35 1017.41 1017.49 1017.50 1017.52 1017.56 1017.56 1017.63 1017.47 1017.59 1017.58 1017.52 1017.62
1009.36 1008.99 1009.22 1009.33 1009.05 1008.89 1008.99 1009.46 1009.46 1009.63 1010.20 1010.58 1011.14 1011.57 1012.68 1013.33 1013.75 1014.17 1014.58 1014.91 1015.23 1015.45 1015.59 1015.73 1015.87 1016.21 1016.40 1016.51 1016.55 1016.47 1016.88 1017.11 1017.27 1017.19 1017.12 1017.29 1017.63 1017.64 1017.71 1017.79 1017.76 1017.68 1017.71 1017.77 1017.66 1017.51 1017.31 1017.29 1017.31
1008.63 1008.93 1009.05 1009.01 1008.76 1009.05 1009.17 1009.23 1009.44 1009.69 1009.73 1010.89 1011.78 1011.96 1012.61 1013.25 1013.55 1014.03 1014.33 1014.78 1015.13 1015.42 1015.51 1015.69 1015.97 1016.33 1016.53 1016.74 1016.89 1016.96 1017.04 1017.21 1017.17 1017.23 1017.15 1017.30 1017.56 1017.60 1017.63 1017.81 1017.81 1017.70 1017.55 1017.59 1017.52 1017.29 1017.03 1016.86 1016.86
1007.76 1008.80 1008.97 1009.06 1009.17 1009.34 1009.75 1010.03 1009.93 1009.60 1010.10 1010.96 1011.64 1011.96 1012.47 1012.82 1013.24 1013.66 1014.19 1014.59 1014.90 1015.23 1015.48 1015.63 1015.93 1016.09 1016.47 1016.74 1017.05 1017.19 1017.12 1017.31 1017.28 1017.22 1017.16 1017.19 1017.32 1017.36 1017.55 1017.65 1017.61 1017.55 1017.55 1017.42 1017.30 1017.12 1016.91 1016.72 1016.55
1008.33 1008.94 1009.24 1009.28 1009.26 1009.26 1009.74 1010.12 1010.08 1009.91 1010.32 1010.86 1011.53 1011.78 1012.20 1012.45 1013.07 1013.10 1013.39 1013.98 1014.44 1014.85 1015.23 1015.56 1015.77 1015.93 1016.36 1016.65 1016.97 1017.15 1017.12 1017.33 1017.37 1017.28 1017.15 1017.03 1017.21 1017.12 1017.30 1017.54 1017.76 1017.47 1017.40 1017.29 1016.97 1016.99 1016.80 1016.69 1016.35
1008.93 1009.47 1009.59 1009.26 1009.09 1009.25 1009.66 1009.61 1009.41 1009.74 1010.29 1010.88 1011.43 1011.49 1011.92 1012.14 1012.33 1012.89 1013.29 1013.72 1014.20 1014.69 1015.13 1015.42 1015.70 1016.03 1016.18 1016.38 1016.62 1016.86 1017.03 1017.13 1017.13 1017.16 1017.12 1016.99 1017.15 1017.03 1017.23 1017.47 1017.67 1017.47 1017.56 1017.35 1017.13 1017.40 1017.33 1016.78 1016.50
1009.51 1009.59 1009.66 1009.38 1009.04 1009.21 1009.60 1009.30 1008.98 1009.53 1010.19 1010.60 1010.86 1011.05 1011.37 1011.90 1012.18 1012.39 1012.79 1013.37 1013.91 1014.23 1014.77 1015.31 1015.51 1015.79 1016.01 1016.13 1016.38 1016.59 1016.64 1016.86 1016.81 1016.90 1017.00 1016.87 1017.12 1017.28 1017.40 1017.45 1017.65 1017.37 1017.31 1017.56 1017.66 1017.60 1017.74 1017.20 1016.88
1009.67 1009.97 1009.74 1009.43 1009.08 1009.37 1009.60 1009.19 1009.07 1009.33 1009.65 1009.67 1010.16 1010.47 1010.85 1011.21 1011.25 1011.54 1012.25 1012.98 1013.58 1014.10 1014.49 1015.07 1015.35 1015.61 1015.79 1016.11 1016.47 1016.56 1016.84 1016.76 1016.60 1016.61 1016.88 1017.02 1017.00 1017.17 1017.39 1017.47 1017.38 1017.17 1017.27 1017.79 1017.83 1017.79 1017.54 1017.38 1017.18
1009.58 1009.69 1009.60 1008.70 1008.53 1008.81 1008.82 1008.74 1008.68 1009.22 1009.32 1009.52 1009.78 1010.04 1010.11 1010.42 1010.52 1011.13 1011.81 1012.57 1013.26 1013.90 1014.40 1014.67 1015.22 1015.37 1015.83 1016.18 1016.62 1016.84 1016.88 1016.72 1016.63 1016.48 1016.64 1016.69 1016.71 1016.93 1017.21 1017.17 1016.94 1016.98 1017.32 1017.59 1017.62 1017.62 1017.55 1017.65 1017.28
1009.43 1009.47 1008.97 1008.30 1008.15 1008.74 1008.66 1008.22 1008.44 1008.47 1008.30 1008.39 1008.97 1009.33 1009.42 1009.87 1010.35 1010.76 1011.41 1012.14 1012.69 1013.16 1013.83 1014.30 1014.80 1015.25 1015.59 1015.83 1016.06 1016.17 1016.39 1016.38 1016.22 1016.19 1016.32 1016.29 1016.47 1016.57 1016.89 1017.01 1016.98 1017.05 1017.20 1017.49 1017.61 1017.65 1017.76 1017.93 1017.42
1008.81 1009.00 1008.52 1008.39 1008.29 1008.54 1008.73 1008.62 1008.09 1007.54 1007.59 1007.79 1008.09 1008.28 1008.67 1008.79 1009.37 1010.19 1010.83 1011.33 1012.04 1012.68 1013.19 1013.59 1014.13 1014.70 1015.12 1015.48 1015.87 1016.23 1016.30 1016.35 1016.28 1016.15 1016.23 1016.31 1016.29 1016.25 1016.61 1016.89 1016.91 1016.93 1017.11 1017.32 1017.47 1017.69 1017.67 1018.03 1017.79
1008.35 1007.38 1007.73 1007.95 1008.73 1008.81 1009.02 1008.93 1007.89 1007.58 1007.34 1007.27 1007.13 1007.25 1007.73 1008.26 1008.53 1009.15 1009.88 1010.72 1011.22 1011.64 1012.46 1013.02 1013.54 1014.17 1014.64 1015.18 1015.56 1015.85 1015.99 1016.26 1016.08 1015.91 1015.83 1015.91 1016.07 1016.21 1016.32 1016.48 1016.71 1016.78 1016.85 1017.23 1017.44 1017.56 1017.77 1017.93 1018.10
1006.79 1006.60 1007.16 1007.58 1008.49 1008.95 1009.32 1009.22 1007.90 1007.70 1007.27 1006.45 1006.65 1006.71 1007.05 1007.29 1007.74 1008.45 1009.07 1009.68 1010.12 1011.12 1011.65 1012.36 1013.07 1013.65 1014.14 1014.71 1015.06 1015.43 1015.62 1015.62 1015.70 1015.88 1015.81 1015.79 1015.80 1015.97 1016.09 1016.35 1016.61 1016.86 1016.95 1017.07 1017.24 1017.43 1017.66 1017.82 1017.94
1005.39 1006.66 1007.47 1008.63 1009.38 1009.99 1009.12 1009.22 1008.05 1007.34 1005.70 1004.80 1005.42 1005.66 1005.96 1006.64 1007.16 1007.73 1008.26 1009.04 1009.80 1010.51 1011.35 1011.91 1012.58 1012.98 1013.62 1014.10 1014.65 1014.92 1015.08 1015.30 1015.62 1015.83 1016.00 1015.96 1015.91 1015.91 1016.04 1016.15 1016.40 1016.58 1016.89 1017.03 1017.01 1017.19 1017.45 1017.54 1017.70
1006.00 1007.20 1008.53 1009.80 1010.24 1010.35 1009.05 1008.84 1006.70 1005.16 1004.54 1003.57 1003.64 1004.54 1005.20 1005.39 1006.18 1007.26 1007.97 1008.66 1009.34 1009.95 1010.61 1011.37 1012.10 1012.52 1012.91 1013.51 1014.07 1014.42 1014.60 1014.93 1015.24 1015.51 1015.64 1015.94 1015.91 1015.99 1015.94 1016.10 1016.24 1016.35 1016.32 1016.46 1016.66 1016.95 1017.22 1017.28 1017.38
1005.62 1006.75 1008.39 1009.51 1010.46 1010.29 1009.14 1007.77 1005.35 1003.87 1003.43 1003.44 1003.45 1003.91 1004.37 1005.09 1005.50 1006.18 1007.00 1007.68 1008.35 1009.01 1009.78 1010.55 1011.31 1011.95 1012.45 1012.91 1013.31 1013.75 1014.05 1014.45 1014.80 1015.08 1015.14 1015.40 1015.57 1015.61 1015.58 1015.73 1015.73 1015.83 1015.97 1016.07 1016.28 1016.68 1016.91 1017.05 1017.10
1005.25 1006.38 1007.00 1008.98 1010.65 1010.40 1009.01 1007.19 1004.92 1003.34 1003.17 1003.23 1003.20 1003.72 1004.04 1004.77 1005.17 1005.82 1006.45 1007.05 1007.67 1008.38 1008.92 1009.56 1010.42 1011.15 1011.76 1012.24 1012.84 1013.36 1013.72 1014.16 1014.50 1014.77 1015.04 1015.13 1015.17 1015.38 1015.54 1015.63 1015.76 1015.68 1015.66 1015.76 1016.05 1016.40 1016.51 1016.66 1016.79
1004.20 1004.96 1007.13 1008.90 1010.35 1010.53 1008.99 1007.60 1005.57 1004.20 1003.43 1003.22 1003.35 1003.52 1003.87 1004.01 1004.57 1005.14 1005.86 1006.43 1007.02 1007.50 1008.13 1009.04 1009.73 1010.26 1010.70 1011.41 1012.15 1012.68 1013.25 1013.68 1014.06 1014.44 1014.72 1014.93 1014.87 1014.94 1015.19 1015.32 1015.53 1015.67 1015.80 1016.02 1016.10 1016.15 1016.23 1016.40 1016.46
1004.28 1005.04 1006.70 1008.07 1009.21 1009.67 1009.05 1007.05 1004.62 1003.96 1003.29 1003.04 1002.86 1003.04 1003.39 1003.78 1004.13 1004.62 1004.96 1005.59 1006.21 1006.88 1007.75 1008.44 1009.22 1009.98 1010.53 1010.90 1011.41 1012.06 1012.69 1013.19 1013.57 1013.91 1014.22 1014.44 1014.59 1014.69 1014.87 1015.07 1015.19 1015.30 1015.33 1015.47 1015.74 1015.84 1015.89 1016.06 1016.03
1003.52 1004.03 1005.39 1007.51 1008.94 1009.05 1008.15 1005.69 1003.99 1003.70 1003.11 1002.79 1002.61 1002.93 1002.96 1003.11 1003.55 1004.19 1004.82 1005.36 1006.03 1006.50 1007.04 1007.75 1008.44 1009.16 1009.76 1010.39 1011.00 1011.57 1012.04 1012.62 1013.24 1013.45 1013.68 1013.97 1014.35 1014.62 1014.82 1015.07 1015.29 1015.26 1015.06 1015.05 1015.21 1015.24 1015.32 1015.56 1015.67
Thickness
5792 5791 5791 5779 5755 5748 5743 5753 5770 5764 5759 5769 5775 5765 5748 5753 5747 5731 5761 5764 5764 5762 5761 5760 5759 5760 5762 5764 5765 5765 5764 5762 5763 5765 5765 5765 5765 5764 5763 5761 5759 5756 5754 5752 5750 5749 5747 5746 5744
5793 5793 5782 5766 5740 5728 5736 5758 5754 5763 5768 5771 5770 5761 5749 5740 5756 5751 5753 5760 5761 5760 5759 5759 5757 5758 5759 5760 5763 5763 5763 5762 5761 5762 5764 5764 5764 5764 5762 5762 5759 5757 5754 5752 5750 5748 5747 5744 5744
5794 5792 5760 5744 5732 5727 5729 5760 5760 5761 5772 5772 5761 5767 5755 5740 5750 5751 5758 5759 5758 5757 5757 5757 5756 5756 5756 5758 5761 5761 5761 5760 5760 5760 5761 5762 5763 5762 5761 5761 5759 5756 5755 5753 5751 5748 5746 5743 5743
5789 5776 5761 5739 5729 5745 5752 5760 5766 5759 5771 5773 5766 5750 5758 5762 5755 5757 5758 5756 5754 5754 5755 5755 5754 5755 5755 5756 5758 5759 5759 5759 5759 5758 5759 5760 5761 5760 5761 5759 5758 5756 5754 5753 5751 5749 5746 5744 5742
5787 5767 5740 5734 5729 5744 5761 5768 5767 5757 5762 5762 5764 5745 5744 5755 5761 5759 5756 5754 5752 5753 5754 5755 5753 5755 5754 5754 5756 5757 5758 5758 5758 5758 5758 5759 5759 5759 5760 5759 5759 5757 5755 5753 5751 5750 5747 5744 5741
5762 5757 5726 5722 5735 5753 5765 5775 5770 5758 5760 5759 5755 5748 5739 5753 5756 5755 5755 5752 5750 5752 5752 5752 5752 5753 5753 5754 5754 5755 5755 5756 5756 5757 5758 5757 5758 5759 5760 5760 5760 5759 5757 5756 5754 5751 5748 5747 5746
5756 5741 5724 5727 5735 5743 5761 5780 5765 5755 5758 5756 5763 5739 5741 5746 5753 5755 5751 5750 5749 5749 5751 5751 5751 5751 5752 5753 5754 5755 5755 5756 5756 5757 5756 5757 5759 5760 5760 5761 5761 5761 5760 5758 5757 5754 5753 5753 5749
5763 5752 5737 5735 5734 5742 5770 5777 5782 5764 5755 5770 5767 5739 5735 5749 5752 5751 5748 5746 5746 5747 5748 5747 5748 5749 5749 5753 5753 5754 5754 5755 5756 5756 5756 5758 5759 5761 5761 5762 5761 5761 5762 5761 5759 5758 5757 5758 5756
5773 5743 5734 5741 5748 5749 5776 5775 5781 5776 5762 5767 5767 5760 5760 5756 5751 5745 5740 5739 5740 5742 5743 5744 5745 5746 5748 5750 5751 5752 5753 5754 5755 5756 5757 5758 5760 5761 5762 5762 5761 5761 5762 5762 5762 5760 5758 5760 5759
5762 5743 5748 5764 5767 5765 5775 5776 5777 5764 5758 5756 5758 5761 5760 5755 5748 5741 5738 5735 5736 5738 5739 5741 5743 5744 5746 5748 5749 5751 5752 5752 5754 5755 5757 5758 5759 5759 5760 5761 5761 5761 5763 5764 5765 5765 5763 5762 5761
5765 5753 5773 5773 5776 5782 5782 5777 5784 5765 5748 5760 5755 5755 5755 5752 5746 5742 5740 5739 5737 5738 5739 5741 5743 5743 5745 5747 5748 5750 5750 5750 5752 5753 5754 5756 5758 5759 5759 5762 5763 5763 5765 5767 5769 5769 5768 5767 5765
5769 5782 5777 5777 5782 5786 5778 5779 5774 5774 5765 5771 5767 5767 5757 5751 5747 5745 5742 5741 5739 5740 5742 5743 5743 5743 5744 5745 5747 5748 5748 5749 5751 5752 5755 5756 5756 5758 5760 5762 5764 5766 5767 5769 5771 5772 5774 5773 5771
5781 5775 5780 5785 5786 5783 5779 5778 5773 5771 5778 5772 5763 5764 5758 5752 5750 5748 5747 5745 5742 5740 5744 5745 5745 5744 5744 5744 5745 5746 5748 5749 5751 5751 5754 5755 5758 5760 5762 5763 5764 5767 5770 5772 5773 5776 5778 5778 5777
5793 5781 5781 5785 5778 5777 5769 5767 5770 5776 5777 5768 5763 5759 5758 5756 5752 5751 5748 5744 5745 5744 5744 5746 5745 5745 5744 5744 5743 5744 5746 5749 5750 5752 5755 5757 5760 5762 5763 5764 5767 5769 5771 5773 5776 5778 5781 5783 5782
5788 5772 5776 5774 5778 5777 5779 5763 5760 5776 5774 5767 5762 5761 5759 5758 5754 5754 5756 5751 5749 5749 5748 5747 5746 5746 5746 5745 5743 5743 5746 5746 5749 5752 5755 5759 5760 5762 5763 5765 5767 5770 5773 5775 5779 5779 5781 5784 5785
5773 5764 5750 5773 5779 5780 5773 5749 5773 5776 5771 5764 5761 5763 5760 5758 5759 5758 5757 5755 5753 5750 5748 5748 5749 5747 5747 5746 5744 5743 5743 5746 5749 5752 5754 5758 5759 5764 5764 5766 5767 5769 5772 5775 5777 5776 5776 5782 5784
5759 5742 5747 5759 5778 5773 5767 5757 5779 5782 5775 5766 5766 5765 5764 5760 5760 5763 5761 5758 5756 5753 5752 5749 5750 5748 5747 5746 5745 5746 5748 5748 5751 5753 5755 5759 5760 5762 5763 5767 5767 5770 5773 5774 5775 5775 5773 5777 5781
5740 5740 5749 5747 5768 5768 5760 5760 5773 5779 5778 5775 5772 5773 5770 5766 5766 5771 5767 5762 5758 5755 5754 5751 5751 5750 5748 5747 5745 5746 5747 5749 5752 5755 5755 5758 5760 5763 5765 5767 5769 5771 5773 5771 5773 5773 5776 5777 5778
5760 5753 5748 5764 5777 5766 5765 5768 5774 5772 5777 5774 5771 5771 5773 5773 5775 5774 5771 5765 5760 5756 5754 5754 5751 5752 5748 5745 5743 5743 5744 5749 5753 5756 5757 5762 5765 5766 5765 5768 5771 5773 5772 5771 5773 5774 5775 5774 5779
5753 5746 5747 5766 5778 5766 5765 5770 5778 5779 5781 5784 5780 5775 5776 5774 5771 5772 5770 5766 5762 5760 5758 5755 5752 5751 5751 5750 5749 5751 5750 5752 5757 5760 5762 5765 5767 5769 5767 5768 5772 5773 5772 5771 5772 5772 5772 5772 5777
5753 5744 5750 5756 5769 5769 5764 5757 5771 5785 5787 5787 5787 5785 5785 5782 5777 5774 5771 5770 5766 5763 5762 5760 5758 5755 5754 5753 5751 5751 5754 5755 5757 5761 5765 5765 5767 5770 5769 5768 5771 5773 5773 5772 5774 5772 5772 5767 5772
5735 5769 5768 5764 5750 5730 5759 5722 5761 5773 5777 5784 5790 5789 5786 5783 5786 5782 5777 5773 5771 5772 5769 5765 5762 5758 5757 5755 5752 5751 5751 5750 5757 5761 5766 5768 5767 5768 5770 5770 5770 5772 5774 5772 5773 5775 5773 5771 5766
5757 5775 5767 5767 5751 5748 5747 5731 5757 5767 5767 5781 5784 5789 5789 5790 5790 5783 5781 5780 5781 5778 5774 5771 5765 5762 5760 5757 5756 5754 5753 5758 5761 5762 5763 5765 5768 5768 5769 5769 5769 5770 5772 5773 5773 5773 5773 5772 5770
5789 5769 5752 5737 5730 5710 5741 5734 5741 5753 5778 5797 5796 5796 5796 5792 5790 5788 5788 5787 5781 5781 5776 5774 5768 5766 5764 5760 5757 5757 5756 5756 5756 5759 5759 5761 5764 5768 5768 5769 5769 5769 5768 5770 5773 5774 5773 5773 5772
5764 5740 5706 5708 5698 5697 5738 5727 5750 5784 5793 5808 5808 5802 5803 5806 5798 5788 5784 5783 5782 5780 5779 5776 5771 5768 5768 5764 5761 5760 5760 5759 5759 5759 5760 5760 5763 5764 5767 5767 5767 5769 5769 5770 5771 5772 5772 5772 5772
5750 5739 5705 5696 5690 5705 5734 5725 5761 5800 5807 5808 5812 5808 5810 5805 5807 5800 5792 5790 5788 5787 5785 5782 5776 5770 5770 5769 5766 5765 5764 5762 5760 5760 5761 5761 5762 5763 5766 5767 5768 5769 5769 5769 5769 5771 5772 5772 5773
5758 5739 5753 5707 5700 5699 5714 5742 5778 5802 5806 5804 5806 5806 5807 5805 5805 5802 5799 5795 5793 5788 5788 5786 5781 5777 5774 5773 5770 5766 5766 5762 5760 5760 5760 5761 5763 5762 5762 5762 5764 5766 5766 5768 5770 5768 5769 5771 5772
5766 5770 5731 5707 5697 5694 5706 5724 5736 5777 5790 5798 5799 5800 5803 5813 5808 5806 5801 5799 5798 5796 5795 5790 5786 5781 5780 5777 5773 5770 5766 5764 5761 5760 5758 5758 5762 5763 5762 5762 5760 5761 5761 5760 5762 5764 5767 5768 5769
5753 5745 5729 5721 5705 5693 5690 5713 5768 5780 5792 5799 5803 5806 5805 5809 5810 5809 5808 5805 5801 5798 5795 5791 5786 5781 5777 5777 5776 5772 5767 5764 5763 5762 5761 5760 5760 5760 5759 5758 5758 5759 5760 5761 5759 5759 5762 5763 5765
5768 5758 5742 5711 5711 5697 5701 5727 5788 5783 5793 5803 5807 5807 5812 5818 5815 5812 5809 5804 5799 5798 5795 5792 5788 5785 5781 5777 5774 5772 5770 5767 5761 5761 5761 5760 5757 5755 5754 5751 5749 5751 5755 5759 5760 5760 5761 5760 5761